Eau Claire, WI

12:06 AM CDT on September 22, 2017 (GMT -0500)
Chippewa Valley Regional

Weather History for KEAU - November, 2013

Change the Weather History Date:

Thursday, November 7, 2013

  Actual Average Record
Temperature  
Mean Temperature 31 °F 38 °F  
Max Temperature 36 °F 47 °F 71 °F (1949)
Min Temperature 25 °F 29 °F -3 °F (1991)
Degree Days  
Heating Degree Days 34 27  
Month to date heating degree days 198 180  
Since 1 July heating degree days 916 964  
Cooling Degree Days 0 0  
Month to date cooling degree days 0 0  
Year to date cooling degree days 653 579  
Moisture  
Dew Point 26 °F    
Average Humidity 88    
Maximum Humidity 100    
Minimum Humidity 75    
Precipitation  
Precipitation 0.00 in 0.06 in 0.88 in (1943)
Month to date precipitation 0.64 0.44  
Year to date precipitation 33.69 28.58  
Snow  
Snow 0.00 in 0.10 in 5.00 in (1896)
Month to date snowfall T 0.7  
Since 1 July snowfall T 1.1  
Since 1 September snowfall T 1.1  
Snow Depth 0.00 in    
Sea Level Pressure  
Sea Level Pressure 30.22 in    
Wind  
Wind Speed 5 mph (WSW)    
Max Wind Speed 12 mph    
Max Gust Speed 13 mph    
Visibility 7 miles    
Events      
T = Trace of Precipitation, MM = Missing Value Source: NWS Daily Summary

Daily Weather History Graph

Daily Weather History Graph

Search for Another Location

Airport or City:

Trip Planner

Search our weather history database for the weather conditions in past years. The results will help you decide how hot, cold, wet, or windy it might be!

Date:

Astronomy

Nov. 07, 2013 Rise Set
Actual Time 6:52 AM CST 4:46 PM CST
Civil Twilight 6:21 AM CST 5:17 PM CST
Nautical Twilight 5:46 AM CST 5:51 PM CST
Astronomical Twilight 5:12 AM CST 6:26 PM CST
Moon 11:03 AM CST (11/7) 8:56 PM CST (11/7)
Length of Visible Light 10h 55m
Length of Day
9h 53m
Waxing Crescent, 23% of the Moon is Illuminated
Nov 7
Waxing Crescent
Nov 9
First Quarter
Nov 17
Full
Nov 25
Last Quarter
Dec 2
New

Hourly Weather History & Observations

Time (CST) Temp. Windchill Dew Point Humidity Pressure Visibility Wind Dir Wind Speed Gust Speed Precip Events Conditions
12:56 AM 28.9 °F - 25.0 °F 85% 30.18 in 9.0 mi Calm Calm - N/A   Mostly Cloudy
1:56 AM 26.1 °F - 24.1 °F 92% 30.18 in 8.0 mi Calm Calm - N/A   Clear
2:56 AM 27.0 °F - 25.0 °F 92% 30.18 in 5.0 mi Calm Calm - N/A   Clear
3:56 AM 25.0 °F 20.7 °F 24.1 °F 96% 30.18 in 7.0 mi SW 3.5 mph - N/A   Clear
4:56 AM 27.0 °F - 24.1 °F 89% 30.19 in 8.0 mi Calm Calm - N/A   Clear
5:56 AM 25.0 °F 19.3 °F 23.0 °F 92% 30.20 in 8.0 mi WSW 4.6 mph - N/A   Clear
6:56 AM 25.0 °F 18.1 °F 23.0 °F 92% 30.22 in 6.0 mi WSW 5.8 mph - N/A   Clear
7:56 AM 27.0 °F 21.6 °F 25.0 °F 92% 30.23 in 6.0 mi SW 4.6 mph - N/A   Clear
8:16 AM 26.6 °F 19.1 °F 24.8 °F 93% 30.20 in 6.0 mi SW 6.9 mph - N/A   Scattered Clouds
8:25 AM 26.6 °F 17.5 °F 24.8 °F 93% 30.20 in 5.0 mi WSW 9.2 mph - N/A   Mostly Cloudy
8:56 AM 28.0 °F 19.3 °F 26.1 °F 92% 30.24 in 4.0 mi West 9.2 mph - N/A   Overcast
9:56 AM 28.9 °F 21.1 °F 27.0 °F 92% 30.25 in 5.0 mi West 8.1 mph - N/A   Overcast
10:56 AM 30.0 °F 22.4 °F 28.0 °F 92% 30.26 in 6.0 mi WSW 8.1 mph - N/A   Overcast
11:56 AM 33.1 °F 26.1 °F 28.0 °F 82% 30.23 in 8.0 mi WSW 8.1 mph - N/A   Overcast
12:09 PM 33.8 °F 28.6 °F 28.4 °F 81% 30.19 in 8.0 mi Variable 5.8 mph - N/A   Overcast
12:47 PM 33.8 °F 28.6 °F 28.4 °F 81% 30.19 in 9.0 mi West 5.8 mph - N/A   Overcast
12:56 PM 34.0 °F 28.0 °F 28.0 °F 79% 30.22 in 9.0 mi West 6.9 mph - N/A   Overcast
1:56 PM 35.1 °F 30.1 °F 28.0 °F 76% 30.21 in 9.0 mi West 5.8 mph - N/A   Overcast
2:56 PM 35.1 °F 31.0 °F 28.0 °F 76% 30.21 in 8.0 mi West 4.6 mph - N/A   Overcast
3:56 PM 34.0 °F 28.8 °F 27.0 °F 75% 30.22 in 9.0 mi WSW 5.8 mph - N/A   Scattered Clouds
4:56 PM 32.0 °F 25.6 °F 26.1 °F 79% 30.22 in 8.0 mi West 6.9 mph - N/A   Clear
5:56 PM 30.0 °F 26.5 °F 26.1 °F 85% 30.23 in 7.0 mi WSW 3.5 mph - N/A   Clear
6:56 PM 30.0 °F 26.5 °F 26.1 °F 85% 30.24 in 7.0 mi SW 3.5 mph - N/A   Clear
7:56 PM 28.0 °F 24.2 °F 26.1 °F 92% 30.23 in 6.0 mi SW 3.5 mph - N/A   Clear
8:56 PM 28.0 °F 20.8 °F 25.0 °F 88% 30.24 in 6.0 mi SW 6.9 mph - N/A   Clear
9:56 PM 28.0 °F 20.8 °F 26.1 °F 92% 30.24 in 6.0 mi SW 6.9 mph - N/A   Clear
10:56 PM 25.0 °F 19.3 °F 24.1 °F 96% 30.24 in 5.0 mi SW 4.6 mph - N/A   Clear
11:56 PM 26.1 °F 20.5 °F 24.1 °F 92% 30.23 in 5.0 mi SW 4.6 mph - N/A   Clear